Date String (YYYY-MM-DD hh:mm:ss) UTC,Instrument flags,Ambient pressure (hPa),Sample flow (lpm),Bypass flow (lpm),Sample temperature (°C),Ambient temperature (°C),ASC tube jacket temperature (°C),LED temperature (°C),Box temperature (°C),Sample RH (%),Span deviation,Mass concentration (μg/m³),Mass concentration (μg/m³),Mass concentration (μg/m³)
DateTimeUTC,F1_M11,P_M11,Q1_M11,Q2_M11,T1_M11,T2_M11,T3_M11,T4_M11,T5_M11,U1_M11,ZSPAN_M11,X0_M11,X2_M11,X1_M11
2022-02-21 02:00:00,,0815.9,5.01,0.00,26.9,26.0,00.0,36.2,28.6,04.0,0000.0,0000.92,0000.57,0000.37
2022-02-21 02:01:00,,0816.0,5.00,0.00,26.9,26.0,00.0,36.2,28.6,03.9,0000.0,0000.94,0000.59,0000.38
2022-02-21 02:02:00,,0815.9,5.00,0.00,26.9,26.0,00.0,36.1,28.6,03.9,0000.0,0000.94,0000.59,0000.38
2022-02-21 02:03:00,,0815.9,4.99,0.00,26.9,26.0,00.0,36.1,28.6,04.1,0000.0,0000.81,0000.56,0000.38
2022-02-21 02:04:00,,0815.9,5.01,0.00,26.9,26.0,00.0,36.1,28.6,04.3,0000.0,0000.80,0000.55,0000.37
2022-02-21 02:05:00,,0816.0,5.00,0.00,26.9,26.0,00.0,36.1,28.6,04.4,0000.0,0000.79,0000.55,0000.37
2022-02-21 02:06:00,,0815.9,5.01,0.00,26.9,26.1,00.0,36.1,28.6,04.7,0000.0,0000.81,0000.54,0000.38
2022-02-21 02:07:00,,0815.9,4.99,0.00,26.9,26.1,00.0,36.0,28.7,05.7,0000.0,0000.98,0000.55,0000.39
2022-02-21 02:08:00,,0815.9,4.99,0.00,26.9,26.2,00.0,36.0,28.7,04.9,0000.0,0001.17,0000.57,0000.40
2022-02-21 02:09:00,,0815.9,5.01,0.00,26.9,26.2,00.0,36.0,28.7,04.8,0000.0,0001.33,0000.60,0000.41
2022-02-21 02:10:00,,0816.0,4.98,0.00,27.0,26.3,00.0,36.0,28.7,04.5,0000.0,0001.33,0000.59,0000.41
2022-02-21 02:11:00,,0815.9,5.01,0.00,27.0,26.3,00.0,36.0,28.7,04.4,0000.0,0001.36,0000.60,0000.41
2022-02-21 02:12:00,,0815.9,4.99,0.00,27.0,26.3,00.0,36.1,28.8,04.3,0000.0,0001.35,0000.60,0000.42
2022-02-21 02:13:00,,0815.9,5.01,0.00,27.0,26.4,00.0,36.1,28.8,04.1,0000.0,0001.37,0000.59,0000.42
2022-02-21 02:14:00,,0815.8,5.01,0.00,27.0,26.4,00.0,36.1,28.8,03.9,0000.0,0001.40,0000.60,0000.42
2022-02-21 02:15:00,,0815.8,4.99,0.00,27.0,26.3,00.0,36.1,28.8,03.8,0000.0,0001.46,0000.62,0000.43
2022-02-21 02:16:00,,0815.9,5.00,0.00,27.0,26.3,00.0,36.1,28.8,03.7,0000.0,0001.48,0000.62,0000.43
2022-02-21 02:17:00,,0815.9,5.02,0.00,27.0,26.2,00.0,36.0,28.7,03.8,0000.0,0001.42,0000.61,0000.42
2022-02-21 02:18:00,,0815.9,4.99,0.00,27.0,26.2,00.0,36.0,28.7,04.0,0000.0,0002.03,0000.59,0000.41
2022-02-21 02:19:00,,0815.9,5.02,0.00,27.0,26.2,00.0,36.0,28.7,04.9,0000.0,0002.05,0000.61,0000.41
2022-02-21 02:20:00,,0815.9,5.01,0.00,27.0,26.2,00.0,36.0,28.7,05.0,0000.0,0001.96,0000.61,0000.40
2022-02-21 02:21:00,,0815.9,5.00,0.00,27.0,26.3,00.0,36.0,28.8,04.7,0000.0,0002.00,0000.64,0000.41
2022-02-21 02:22:00,,0816.0,4.99,0.00,27.0,26.3,00.0,36.0,28.8,04.9,0000.0,0002.03,0000.66,0000.41
2022-02-21 02:23:00,,0816.0,5.02,0.00,27.0,26.3,00.0,36.0,28.8,05.3,0000.0,0002.05,0000.67,0000.41
2022-02-21 02:24:00,,0816.0,4.99,0.00,27.0,26.3,00.0,36.0,28.8,05.5,0000.0,0002.07,0000.68,0000.41
2022-02-21 02:25:00,,0815.9,4.99,0.00,27.0,26.3,00.0,36.0,28.8,04.8,0000.0,0002.10,0000.71,0000.42
2022-02-21 02:26:00,,0815.9,5.00,0.00,27.0,26.3,00.0,36.0,28.8,04.7,0000.0,0002.13,0000.73,0000.44
2022-02-21 02:27:00,,0815.9,5.01,0.00,27.0,26.3,00.0,36.0,28.8,04.6,0000.0,0002.18,0000.76,0000.45
2022-02-21 02:28:00,,0816.0,5.00,0.00,27.0,26.3,00.0,36.1,28.8,04.6,0000.0,0002.49,0000.79,0000.47
2022-02-21 02:29:00,,0816.0,4.98,0.00,27.0,26.3,00.0,36.1,28.8,04.9,0000.0,0002.29,0000.81,0000.48
2022-02-21 02:30:00,,0815.9,5.02,0.00,27.0,26.3,00.0,36.1,28.8,04.9,0000.0,0002.16,0000.78,0000.48
2022-02-21 02:31:00,,0815.9,4.99,0.00,27.0,26.3,00.0,36.1,28.8,04.5,0000.0,0002.07,0000.75,0000.49
2022-02-21 02:32:00,,0816.0,4.99,0.00,27.0,26.3,00.0,36.1,28.8,04.5,0000.0,0002.26,0000.72,0000.48
2022-02-21 02:33:00,,0815.9,5.02,0.00,27.0,26.3,00.0,36.1,28.7,04.8,0000.0,0002.47,0000.68,0000.48
2022-02-21 02:34:00,,0815.9,5.00,0.00,27.0,26.3,00.0,36.1,28.8,05.1,0000.0,0002.54,0000.70,0000.47
2022-02-21 02:35:00,,0815.8,4.99,0.00,27.0,26.3,00.0,36.1,28.8,04.7,0000.0,0002.54,0000.70,0000.48
2022-02-21 02:36:00,,0815.9,4.99,0.00,27.0,26.3,00.0,36.1,28.8,04.6,0000.0,0002.54,0000.70,0000.48
2022-02-21 02:37:00,,0815.8,5.01,0.00,27.0,26.3,00.0,36.1,28.7,04.9,0000.0,0002.48,0000.67,0000.48
2022-02-21 02:38:00,,0815.8,4.99,0.00,27.0,26.3,00.0,36.1,28.7,04.5,0000.0,0002.44,0000.65,0000.48
2022-02-21 02:39:00,,0815.8,5.01,0.00,27.0,26.2,00.0,36.1,28.8,04.6,0000.0,0002.13,0000.65,0000.48
2022-02-21 02:40:00,,0815.8,4.98,0.00,27.0,26.2,00.0,36.1,28.7,04.7,0000.0,0001.53,0000.64,0000.47
2022-02-21 02:41:00,,0815.8,5.01,0.00,27.0,26.2,00.0,36.1,28.8,04.2,0000.0,0001.55,0000.64,0000.47
2022-02-21 02:42:00,,0815.8,5.01,0.00,27.0,26.2,00.0,36.1,28.8,04.2,0000.0,0001.73,0000.63,0000.47
2022-02-21 02:43:00,,0815.8,4.99,0.00,27.0,26.2,00.0,36.1,28.8,04.7,0000.0,0001.48,0000.66,0000.48
2022-02-21 02:44:00,,0815.7,5.00,0.00,27.0,26.2,00.0,36.1,28.8,04.5,0000.0,0001.24,0000.67,0000.50
2022-02-21 02:45:00,,0815.7,5.00,0.00,27.0,26.2,00.0,36.1,28.8,04.5,0000.0,0001.15,0000.64,0000.50
2022-02-21 02:46:00,,0815.7,5.00,0.00,27.0,26.2,00.0,36.1,28.7,04.7,0000.0,0001.19,0000.65,0000.50
2022-02-21 02:47:00,,0815.7,4.99,0.00,27.0,26.2,00.0,36.1,28.7,04.5,0000.0,0001.19,0000.65,0000.50
2022-02-21 02:48:00,,0815.6,5.02,0.00,27.0,26.2,00.0,36.1,28.7,04.8,0000.0,0001.35,0000.68,0000.50
2022-02-21 02:49:00,,0815.7,5.00,0.00,27.0,26.2,00.0,36.1,28.7,04.6,0000.0,0001.31,0000.66,0000.49
2022-02-21 02:50:00,,0815.6,5.00,0.00,27.0,26.2,00.0,36.0,28.7,04.5,0000.0,0002.44,0000.66,0000.50
2022-02-21 02:51:00,,0815.6,5.01,0.00,27.0,26.2,00.0,36.0,28.7,04.8,0000.0,0002.77,0000.67,0000.50
2022-02-21 02:52:00,,0815.6,5.00,0.00,27.0,26.1,00.0,36.0,28.7,04.9,0000.0,0003.13,0000.73,0000.51
2022-02-21 02:53:00,,0815.7,4.99,0.00,27.0,26.2,00.0,36.0,28.7,04.8,0000.0,0003.02,0000.77,0000.53
2022-02-21 02:54:00,,0815.7,5.01,0.00,27.0,26.1,00.0,36.0,28.7,04.5,0000.0,0003.00,0000.77,0000.54
2022-02-21 02:55:00,,0815.9,5.00,0.00,26.9,26.1,00.0,36.0,28.7,04.4,0000.0,0003.05,0000.78,0000.53
2022-02-21 02:56:00,,0815.9,4.98,0.00,26.9,26.0,00.0,36.0,28.6,04.4,0000.0,0003.07,0000.79,0000.53
2022-02-21 02:57:00,,0816.0,5.02,0.00,26.9,26.0,00.0,36.0,28.6,04.6,0000.0,0003.09,0000.77,0000.53
2022-02-21 02:58:00,,0816.0,4.99,0.00,26.9,26.0,00.0,36.0,28.6,04.5,0000.0,0003.08,0000.76,0000.53
2022-02-21 02:59:00,,0815.8,5.01,0.00,26.9,26.0,00.0,36.0,28.6,04.3,0000.0,0002.93,0000.72,0000.53
